| time (UTC) | temp C | wind direction | speed KPH | gust KPH | rain 1hr cm | rain 24hr cm | rain mn cm | humidity % | barometer mb |
| 20260505051621 | 17 | 147 | 0.0 | 4.8 | 0.00 | 0.00 | 0.00 | 62 | 1008.5 |
| 20260505051119 | 16 | 118 | 3.2 | 4.8 | 0.00 | 0.00 | 0.00 | 63 | 1008.5 |
| 20260505050616 | 16 | 133 | 3.2 | 3.2 | 0.00 | 0.00 | 0.00 | 62 | 1008.6 |
| 20260505050114 | 16 | 147 | 0.0 | 4.8 | 0.00 | 0.00 | 0.00 | 62 | 1008.5 |
| 20260505041544 | 16 | 83 | 0.0 | 3.2 | 0.00 | 0.00 | 0.00 | 62 | 1008.5 |
| 20260505041041 | 16 | 87 | 1.6 | 3.2 | 0.00 | 0.00 | 0.00 | 63 | 1008.4 |
| 20260505040539 | 16 | 137 | 0.0 | 3.2 | 0.00 | 0.00 | 0.00 | 61 | 1008.3 |
| 20260505040036 | 16 | 165 | 1.6 | 3.2 | 0.00 | 0.00 | 0.00 | 62 | 1008.4 |
| 20260505035531 | 16 | 113 | 3.2 | 3.2 | 0.00 | 0.00 | 0.00 | 62 | 1008.3 |
| 20260505035028 | 16 | 160 | 3.2 | 3.2 | 0.00 | 0.00 | 0.00 | 63 | 1008.1 |
| 20260505034525 | 16 | 150 | 1.6 | 3.2 | 0.00 | 0.00 | 0.00 | 65 | 1008.2 |
| 20260505034022 | 16 | 132 | 1.6 | 3.2 | 0.00 | 0.00 | 0.00 | 64 | 1008.4 |
| 20260505033519 | 16 | 110 | 0.0 | 3.2 | 0.00 | 0.00 | 0.00 | 66 | 1008.2 |
| 20260505033017 | 16 | 86 | 1.6 | 4.8 | 0.00 | 0.00 | 0.00 | 67 | 1008.3 |
| 20260505032514 | 16 | 89 | 0.0 | 3.2 | 0.00 | 0.00 | 0.00 | 67 | 1008.3 |
| 20260505032011 | 16 | 68 | 0.0 | 3.2 | 0.00 | 0.00 | 0.00 | 66 | 1008.3 |
| 20260505031508 | 15 | 107 | 0.0 | 3.2 | 0.00 | 0.00 | 0.00 | 66 | 1008.2 |
| 20260505031004 | 15 | 57 | 1.6 | 3.2 | 0.00 | 0.00 | 0.00 | 66 | 1008.2 |
| 20260505030501 | 15 | 86 | 3.2 | 3.2 | 0.00 | 0.00 | 0.00 | 66 | 1008.4 |
| 20260505025956 | 16 | 99 | 1.6 | 3.2 | 0.00 | 0.00 | 0.00 | 65 | 1008.4 |
| 20260505025453 | 16 | 216 | 0.0 | 3.2 | 0.00 | 0.00 | 0.00 | 66 | 1008.3 |
| 20260505024952 | 16 | 82 | 0.0 | 3.2 | 0.00 | 0.00 | 0.00 | 65 | 1008.3 |
| 20260505024449 | 16 | 118 | 3.2 | 3.2 | 0.00 | 0.00 | 0.00 | 65 | 1008.4 |
| 20260505023946 | 16 | 193 | 0.0 | 3.2 | 0.00 | 0.00 | 0.00 | 64 | 1008.5 |
| 20260505023443 | 16 | 130 | 1.6 | 1.6 | 0.00 | 0.00 | 0.00 | 65 | 1008.4 |
| 20260505022940 | 16 | 89 | 0.0 | 1.6 | 0.00 | 0.00 | 0.00 | 65 | 1008.4 |
| 20260505022438 | 16 | 89 | 0.0 | 3.2 | 0.00 | 0.00 | 0.00 | 65 | 1008.3 |
| 20260505021935 | 16 | 180 | 0.0 | 1.6 | 0.00 | 0.00 | 0.00 | 64 | 1008.3 |
| 20260505021431 | 16 | 124 | 0.0 | 0.0 | 0.00 | 0.00 | 0.00 | 67 | 1008.1 |
| 20260505020927 | 16 | 89 | 0.0 | 1.6 | 0.00 | 0.00 | 0.00 | 66 | 1008.1 |
| 20260505020422 | 16 | 114 | 0.0 | 1.6 | 0.00 | 0.00 | 0.00 | 65 | 1008.0 |
| 20260505015920 | 16 | 135 | 0.0 | 3.2 | 0.00 | 0.00 | 0.00 | 64 | 1008.3 |
| 20260505015417 | 16 | 178 | 3.2 | 3.2 | 0.00 | 0.00 | 0.00 | 65 | 1008.3 |
| 20260505014914 | 16 | 134 | 1.6 | 1.6 | 0.00 | 0.00 | 0.00 | 65 | 1008.2 |
| 20260505014411 | 16 | 88 | 0.0 | 1.6 | 0.00 | 0.00 | 0.00 | 64 | 1008.2 |
| 20260505013908 | 17 | 89 | 0.0 | 1.6 | 0.00 | 0.00 | 0.00 | 63 | 1008.3 |
| 20260505013404 | 16 | 104 | 0.0 | 0.0 | 0.00 | 0.00 | 0.00 | 62 | 1008.3 |
| 20260505012903 | 16 | 142 | 0.0 | 0.0 | 0.00 | 0.00 | 0.00 | 62 | 1008.2 |
| 20260505012400 | 17 | 142 | 0.0 | 0.0 | 0.00 | 0.00 | 0.00 | 61 | 1008.2 |
| 20260505011856 | 17 | 142 | 0.0 | 0.0 | 0.00 | 0.00 | 0.00 | 60 | 1008.1 |
| 20260505011353 | 17 | 93 | 1.6 | 1.6 | 0.00 | 0.00 | 0.00 | 60 | 1008.1 |
| 20260505010849 | 17 | 84 | 1.6 | 1.6 | 0.00 | 0.00 | 0.00 | 59 | 1008.0 |
| 20260505010345 | 17 | 89 | 0.0 | 0.0 | 0.00 | 0.00 | 0.00 | 57 | 1008.1 |
| 20260505005842 | 17 | 49 | 0.0 | 0.0 | 0.00 | 0.00 | 0.00 | 57 | 1007.8 |
| 20260505005339 | 18 | 103 | 0.0 | 0.0 | 0.00 | 0.00 | 0.00 | 56 | 1007.8 |
| 20260505004836 | 18 | 66 | 0.0 | 0.0 | 0.00 | 0.00 | 0.00 | 55 | 1008.0 |
| 20260505004332 | 18 | 124 | 0.0 | 1.6 | 0.00 | 0.00 | 0.00 | 54 | 1007.8 |
| 20260505003830 | 18 | 135 | 0.0 | 3.2 | 0.00 | 0.00 | 0.00 | 54 | 1007.7 |
| 20260505003327 | 18 | 47 | 1.6 | 1.6 | 0.00 | 0.00 | 0.00 | 52 | 1007.5 |
| 20260505002823 | 18 | 76 | 0.0 | 0.0 | 0.00 | 0.00 | 0.00 | 51 | 1007.8 |
| 20260505002320 | 18 | 53 | 0.0 | 1.6 | 0.00 | 0.00 | 0.00 | 50 | 1007.8 |
| 20260505001818 | 18 | 119 | 3.2 | 3.2 | 0.00 | 0.00 | 0.00 | 50 | 1007.7 |
| 20260505001315 | 18 | 141 | 0.0 | 1.6 | 0.00 | 0.00 | 0.00 | 49 | 1007.7 |
| 20260505000812 | 19 | 326 | 0.0 | 0.0 | 0.00 | 0.00 | 0.00 | 49 | 1007.3 |
| 20260505000310 | 19 | 80 | 0.0 | 3.2 | 0.00 | 0.00 | 0.00 | 48 | 1007.8 |
| 20260504235806 | 20 | 193 | 0.0 | 0.0 | 0.00 | 0.00 | 0.00 | 47 | 1007.5 |
| 20260504235304 | 20 | 193 | 0.0 | 0.0 | 0.00 | 0.00 | 0.00 | 45 | 1007.4 |
| 20260504234800 | 20 | 168 | 0.0 | 0.0 | 0.00 | 0.00 | 0.00 | 45 | 1007.5 |
| 20260504234258 | 20 | 168 | 0.0 | 0.0 | 0.00 | 0.00 | 0.00 | 44 | 1007.5 |
| 20260504233754 | 21 | 69 | 0.0 | 1.6 | 0.00 | 0.00 | 0.00 | 43 | 1007.3 |
| 20260504233249 | 21 | 49 | 0.0 | 0.0 | 0.00 | 0.00 | 0.00 | 44 | 1007.4 |
| 20260504232746 | 21 | 89 | 0.0 | 0.0 | 0.00 | 0.00 | 0.00 | 41 | 1007.4 |
| 20260504232243 | 21 | 76 | 0.0 | 0.0 | 0.00 | 0.00 | 0.00 | 41 | 1007.3 |
| 20260504231740 | 22 | 142 | 0.0 | 1.6 | 0.00 | 0.00 | 0.00 | 41 | 1007.2 |
| 20260504231237 | 22 | 191 | 0.0 | 4.8 | 0.00 | 0.00 | 0.00 | 39 | 1007.2 |
| 20260504230732 | 22 | 158 | 1.6 | 1.6 | 0.00 | 0.00 | 0.00 | 39 | 1007.3 |
| 20260504230232 | 22 | 327 | 0.0 | 3.2 | 0.00 | 0.00 | 0.00 | 40 | 1007.1 |
| 20260504225730 | 22 | 95 | 0.0 | 0.0 | 0.00 | 0.00 | 0.00 | 38 | 1007.4 |
| 20260504225226 | 22 | 117 | 0.0 | 1.6 | 0.00 | 0.00 | 0.00 | 36 | 1007.3 |
| 20260504224723 | 22 | 117 | 0.0 | 4.8 | 0.00 | 0.00 | 0.00 | 36 | 1007.4 |
| 20260504224220 | 23 | 240 | 0.0 | 4.8 | 0.00 | 0.00 | 0.00 | 36 | 1007.3 |
| 20260504223716 | 22 | 207 | 3.2 | 4.8 | 0.00 | 0.00 | 0.00 | 35 | 1007.2 |
| 20260504223212 | 23 | 102 | 0.0 | 3.2 | 0.00 | 0.00 | 0.00 | 35 | 1007.4 |
| 20260504222709 | 23 | 142 | 0.0 | 1.6 | 0.00 | 0.00 | 0.00 | 35 | 1007.3 |
| 20260504222206 | 23 | 89 | 0.0 | 4.8 | 0.00 | 0.00 | 0.00 | 35 | 1007.4 |
| 20260504221704 | 23 | 343 | 0.0 | 4.8 | 0.00 | 0.00 | 0.00 | 34 | 1007.3 |
| 20260504221201 | 23 | 114 | 0.0 | 1.6 | 0.00 | 0.00 | 0.00 | 35 | 1007.5 |
| 20260504220657 | 23 | 290 | 0.0 | 1.6 | 0.00 | 0.00 | 0.00 | 35 | 1007.5 |
| 20260504220155 | 23 | 129 | 0.0 | 3.2 | 0.00 | 0.00 | 0.00 | 34 | 1007.4 |
| 20260504215651 | 23 | 239 | 1.6 | 4.8 | 0.00 | 0.00 | 0.00 | 33 | 1007.4 |
| 20260504215148 | 23 | 326 | 0.0 | 3.2 | 0.00 | 0.00 | 0.00 | 34 | 1007.4 |
| 20260504214644 | 23 | 126 | 0.0 | 3.2 | 0.00 | 0.00 | 0.00 | 33 | 1007.6 |
| 20260504214140 | 23 | 111 | 3.2 | 9.7 | 0.00 | 0.00 | 0.00 | 33 | 1007.6 |
| 20260504213637 | 23 | 55 | 3.2 | 4.8 | 0.00 | 0.00 | 0.00 | 33 | 1007.7 |
| 20260504213134 | 24 | 123 | 0.0 | 3.2 | 0.00 | 0.00 | 0.00 | 37 | 1007.5 |
| 20260504212630 | 23 | 136 | 1.6 | 4.8 | 0.00 | 0.00 | 0.00 | 34 | 1007.3 |
| 20260504212127 | 23 | 240 | 4.8 | 4.8 | 0.00 | 0.00 | 0.00 | 35 | 1007.7 |
| 20260504211625 | 23 | 23 | 3.2 | 4.8 | 0.00 | 0.00 | 0.00 | 34 | 1007.7 |
| 20260504211121 | 23 | 89 | 0.0 | 3.2 | 0.00 | 0.00 | 0.00 | 36 | 1007.4 |
| 20260504210619 | 23 | 195 | 0.0 | 3.2 | 0.00 | 0.00 | 0.00 | 34 | 1007.6 |
| 20260504210115 | 23 | 244 | 1.6 | 4.8 | 0.00 | 0.00 | 0.00 | 32 | 1007.7 |
| 20260504205613 | 23 | 117 | 0.0 | 1.6 | 0.00 | 0.00 | 0.00 | 33 | 1007.7 |
| 20260504205110 | 23 | 224 | 0.0 | 3.2 | 0.00 | 0.00 | 0.00 | 32 | 1007.6 |
| 20260504204609 | 23 | 64 | 0.0 | 9.7 | 0.00 | 0.00 | 0.00 | 32 | 1007.3 |
| 20260504204107 | 24 | 85 | 1.6 | 4.8 | 0.00 | 0.00 | 0.00 | 31 | 1007.3 |
| 20260504203605 | 25 | 86 | 0.0 | 3.2 | 0.00 | 0.00 | 0.00 | 31 | 1007.3 |
| 20260504203102 | 25 | 220 | 3.2 | 3.2 | 0.00 | 0.00 | 0.00 | 30 | 1007.2 |
| 20260504202557 | 24 | 178 | 1.6 | 4.8 | 0.00 | 0.00 | 0.00 | 31 | 1007.5 |
| 20260504202054 | 25 | 164 | 1.6 | 4.8 | 0.00 | 0.00 | 0.00 | 30 | 1007.5 |
| 20260504201551 | 24 | 76 | 1.6 | 4.8 | 0.00 | 0.00 | 0.00 | 31 | 1007.4 |
| 20260504201049 | 24 | 85 | 1.6 | 4.8 | 0.00 | 0.00 | 0.00 | 31 | 1007.6 |
| 20260504200545 | 24 | 76 | 0.0 | 4.8 | 0.00 | 0.00 | 0.00 | 31 | 1007.6 |
| 20260504200042 | 24 | 152 | 0.0 | 6.4 | 0.00 | 0.00 | 0.00 | 30 | 1007.9 |
| 20260504195538 | 25 | 138 | 1.6 | 6.4 | 0.00 | 0.00 | 0.00 | 32 | 1007.8 |
| 20260504195035 | 24 | 268 | 3.2 | 6.4 | 0.00 | 0.00 | 0.00 | 31 | 1008.1 |
| 20260504194531 | 25 | 113 | 3.2 | 4.8 | 0.00 | 0.00 | 0.00 | 32 | 1007.8 |
| 20260504194027 | 24 | 325 | 3.2 | 4.8 | 0.00 | 0.00 | 0.00 | 32 | 1008.0 |
| 20260504193524 | 25 | 95 | 3.2 | 3.2 | 0.00 | 0.00 | 0.00 | 32 | 1008.1 |
| 20260504193023 | 24 | 182 | 3.2 | 4.8 | 0.00 | 0.00 | 0.00 | 32 | 1008.1 |
| 20260504192520 | 23 | 108 | 1.6 | 8.0 | 0.00 | 0.00 | 0.00 | 30 | 1008.2 |
| 20260504192019 | 25 | 207 | 4.8 | 4.8 | 0.00 | 0.00 | 0.00 | 32 | 1008.5 |
| 20260504191516 | 25 | 239 | 4.8 | 6.4 | 0.00 | 0.00 | 0.00 | 31 | 1008.6 |
| 20260504191012 | 24 | 167 | 3.2 | 4.8 | 0.00 | 0.00 | 0.00 | 32 | 1008.6 |
| 20260504190508 | 23 | 213 | 1.6 | 6.4 | 0.00 | 0.00 | 0.00 | 31 | 1008.5 |
| 20260504190004 | 23 | 235 | 3.2 | 4.8 | 0.00 | 0.00 | 0.00 | 30 | 1008.7 |
| 20260504185501 | 23 | 84 | 3.2 | 4.8 | 0.00 | 0.00 | 0.00 | 31 | 1008.3 |
| 20260504184958 | 23 | 163 | 1.6 | 4.8 | 0.00 | 0.00 | 0.00 | 32 | 1008.7 |
| 20260504184453 | 23 | 34 | 0.0 | 6.4 | 0.00 | 0.00 | 0.00 | 32 | 1008.8 |
| 20260504183949 | 23 | 269 | 0.0 | 4.8 | 0.00 | 0.00 | 0.00 | 32 | 1008.7 |
| 20260504183446 | 23 | 106 | 3.2 | 4.8 | 0.00 | 0.00 | 0.00 | 32 | 1009.0 |
| 20260504182944 | 23 | 96 | 3.2 | 6.4 | 0.00 | 0.00 | 0.00 | 32 | 1009.1 |
| 20260504182441 | 23 | 131 | 3.2 | 6.4 | 0.00 | 0.00 | 0.00 | 33 | 1009.1 |
| 20260504181938 | 23 | 199 | 1.6 | 4.8 | 0.00 | 0.00 | 0.00 | 32 | 1009.1 |
| 20260504181435 | 23 | 80 | 3.2 | 4.8 | 0.00 | 0.00 | 0.00 | 31 | 1009.2 |
| 20260504180934 | 23 | 232 | 1.6 | 4.8 | 0.00 | 0.00 | 0.00 | 34 | 1009.3 |
| 20260504180432 | 23 | 266 | 3.2 | 3.2 | 0.00 | 0.00 | 0.00 | 33 | 1009.2 |
| 20260504175930 | 23 | 161 | 3.2 | 4.8 | 0.00 | 0.00 | 0.00 | 32 | 1009.4 |
| 20260504175427 | 23 | 180 | 3.2 | 8.0 | 0.00 | 0.00 | 0.00 | 33 | 1009.3 |
| 20260504174925 | 23 | 108 | 1.6 | 4.8 | 0.00 | 0.00 | 0.00 | 33 | 1009.3 |
| 20260504174422 | 22 | 232 | 3.2 | 8.0 | 0.00 | 0.00 | 0.00 | 33 | 1009.1 |
| 20260504173919 | 22 | 69 | 3.2 | 4.8 | 0.00 | 0.00 | 0.00 | 33 | 1009.5 |
| 20260504173416 | 22 | 161 | 4.8 | 4.8 | 0.00 | 0.00 | 0.00 | 33 | 1009.8 |
| 20260504172913 | 22 | 55 | 8.0 | 8.0 | 0.00 | 0.00 | 0.00 | 34 | 1009.7 |
| 20260504172409 | 22 | 138 | 1.6 | 4.8 | 0.00 | 0.00 | 0.00 | 34 | 1009.8 |
| 20260504171905 | 22 | 221 | 4.8 | 16.1 | 0.00 | 0.00 | 0.00 | 33 | 1009.7 |
| 20260504171403 | 22 | 279 | 4.8 | 6.4 | 0.00 | 0.00 | 0.00 | 34 | 1009.9 |
| 20260504170900 | 22 | 117 | 3.2 | 8.0 | 0.00 | 0.00 | 0.00 | 34 | 1010.1 |
| 20260504170356 | 22 | 120 | 4.8 | 6.4 | 0.00 | 0.00 | 0.00 | 33 | 1009.9 |
| 20260504160315 | 20 | 13 | 0.0 | 4.8 | 0.00 | 0.00 | 0.00 | 36 | 1010.7 |
| 20260504150740 | 19 | 180 | 0.0 | 3.2 | 0.00 | 0.00 | 0.00 | 38 | 1011.1 |
| 20260504150236 | 18 | 286 | 3.2 | 4.8 | 0.00 | 0.00 | 0.00 | 39 | 1010.9 |
| 20260504141206 | 17 | 143 | 6.4 | 9.7 | 0.00 | 0.00 | 0.00 | 44 | 1011.2 |
| 20260504140703 | 17 | 116 | 1.6 | 3.2 | 0.00 | 0.00 | 0.00 | 50 | 1011.1 |
| 20260504140158 | 16 | 177 | 0.0 | 4.8 | 0.00 | 0.00 | 0.00 | 49 | 1011.1 |
| 20260504130626 | 14 | 120 | 3.2 | 8.0 | 0.00 | 0.00 | 0.00 | 56 | 1011.7 |
| 20260504130123 | 14 | 163 | 3.2 | 4.8 | 0.00 | 0.00 | 0.00 | 58 | 1011.6 |
| 20260504110515 | 11 | 52 | 1.6 | 3.2 | 0.00 | 0.00 | 0.00 | 67 | 1012.2 |
| 20260504100437 | 11 | 124 | 0.0 | 3.2 | 0.00 | 0.00 | 0.00 | 71 | 1012.4 |
| 20260504081830 | 10 | 146 | 0.0 | 4.8 | 0.00 | 0.00 | 0.00 | 77 | 1012.5 |
| 20260504081326 | 10 | 88 | 3.2 | 4.8 | 0.00 | 0.00 | 0.00 | 76 | 1012.5 |
| 20260504080822 | 10 | 120 | 1.6 | 4.8 | 0.00 | 0.00 | 0.00 | 78 | 1012.6 |
| 20260504080320 | 10 | 56 | 0.0 | 4.8 | 0.00 | 0.00 | 0.00 | 79 | 1012.6 |
| 20260504070241 | 8 | 76 | 1.6 | 4.8 | 0.00 | 0.00 | 0.00 | 82 | 1012.9 |
| 20260504060202 | 8 | 119 | 1.6 | 4.8 | 0.00 | 0.00 | 0.00 | 84 | 1012.6 |